| time (UTC) | temp F | wind direction | speed MPH | gust MPH | rain 1hr in | rain 24hr in | rain mn in | humidity % | barometer mb |
| 20260508200058 | 73 | 141 | 9.0 | 17.0 | 0.00 | 0.00 | 0.00 | 51 | 1011.8 |
| 20260508195551 | 74 | 124 | 10.0 | 20.0 | 0.00 | 0.00 | 0.00 | 49 | 1011.8 |
| 20260508195052 | 74 | 188 | 12.0 | 20.0 | 0.00 | 0.00 | 0.00 | 48 | 1011.8 |
| 20260508194621 | 73 | 174 | 12.0 | 19.0 | 0.00 | 0.00 | 0.00 | 48 | 1011.6 |
| 20260508194051 | 73 | 173 | 6.0 | 16.0 | 0.00 | 0.00 | 0.00 | 50 | 1011.7 |
| 20260508193551 | 73 | 160 | 6.0 | 16.0 | 0.00 | 0.00 | 0.00 | 52 | 1011.8 |
| 20260508193101 | 73 | 143 | 3.0 | 15.0 | 0.00 | 0.00 | 0.00 | 50 | 1011.9 |
| 20260508192555 | 73 | 165 | 4.0 | 16.0 | 0.00 | 0.00 | 0.00 | 50 | 1012.2 |
| 20260508192057 | 73 | 122 | 10.0 | 16.0 | 0.00 | 0.00 | 0.00 | 49 | 1012.2 |
| 20260508191600 | 73 | 0 | 6.0 | 16.0 | 0.00 | 0.00 | 0.00 | 49 | 1012.2 |
| 20260508191055 | 73 | 180 | 7.0 | 16.0 | 0.00 | 0.00 | 0.00 | 50 | 1012.0 |
| 20260508190557 | 73 | 157 | 4.0 | 15.0 | 0.00 | 0.00 | 0.00 | 51 | 1012.1 |
| 20260508190058 | 73 | 122 | 8.0 | 15.0 | 0.00 | 0.00 | 0.00 | 50 | 1012.2 |
| 20260508185552 | 72 | 138 | 3.0 | 15.0 | 0.00 | 0.00 | 0.00 | 53 | 1012.3 |
| 20260508185053 | 72 | 153 | 5.0 | 13.0 | 0.00 | 0.00 | 0.00 | 52 | 1012.2 |
| 20260508184603 | 72 | 171 | 3.0 | 13.0 | 0.00 | 0.00 | 0.00 | 52 | 1012.5 |
| 20260508184055 | 72 | 166 | 5.0 | 14.0 | 0.00 | 0.00 | 0.00 | 50 | 1012.4 |
| 20260508183551 | 72 | 0 | 6.0 | 14.0 | 0.00 | 0.00 | 0.00 | 48 | 1012.4 |
| 20260508183100 | 72 | 172 | 2.0 | 15.0 | 0.00 | 0.00 | 0.00 | 50 | 1012.6 |
| 20260508182559 | 72 | 138 | 6.0 | 18.0 | 0.00 | 0.00 | 0.00 | 49 | 1012.9 |
| 20260508182054 | 73 | 141 | 9.0 | 18.0 | 0.00 | 0.00 | 0.00 | 49 | 1012.9 |
| 20260508181632 | 72 | 174 | 5.0 | 16.0 | 0.00 | 0.00 | 0.00 | 50 | 1013.1 |
| 20260508181055 | 71 | 0 | 6.0 | 12.0 | 0.00 | 0.00 | 0.00 | 52 | 1013.2 |
| 20260508180559 | 71 | 0 | 1.0 | 15.0 | 0.00 | 0.00 | 0.00 | 51 | 1013.3 |
| 20260508175555 | 72 | 141 | 3.0 | 14.0 | 0.00 | 0.00 | 0.00 | 51 | 1013.2 |
| 20260508175057 | 72 | 181 | 5.0 | 14.0 | 0.00 | 0.00 | 0.00 | 49 | 1013.4 |
| 20260508174603 | 71 | 0 | 1.0 | 16.0 | 0.00 | 0.00 | 0.00 | 51 | 1013.5 |
| 20260508174056 | 71 | 113 | 4.0 | 16.0 | 0.00 | 0.00 | 0.00 | 49 | 1013.5 |
| 20260508173556 | 71 | 140 | 7.0 | 14.0 | 0.00 | 0.00 | 0.00 | 48 | 1013.4 |
| 20260508173057 | 71 | 155 | 4.0 | 12.0 | 0.00 | 0.00 | 0.00 | 52 | 1013.8 |
| 20260508172555 | 71 | 186 | 2.0 | 10.0 | 0.00 | 0.00 | 0.00 | 51 | 1014.1 |
| 20260508172056 | 70 | 0 | 3.0 | 11.0 | 0.00 | 0.00 | 0.00 | 50 | 1014.2 |
| 20260508171556 | 70 | 138 | 2.0 | 11.0 | 0.00 | 0.00 | 0.00 | 52 | 1014.1 |
| 20260508171055 | 70 | 133 | 5.0 | 11.0 | 0.00 | 0.00 | 0.00 | 53 | 1014.2 |
| 20260508170555 | 70 | 147 | 2.0 | 13.0 | 0.00 | 0.00 | 0.00 | 52 | 1014.4 |
| 20260508170054 | 69 | 133 | 3.0 | 13.0 | 0.00 | 0.00 | 0.00 | 52 | 1014.4 |
| 20260508165555 | 69 | 141 | 3.0 | 13.0 | 0.00 | 0.00 | 0.00 | 53 | 1014.4 |
| 20260508165055 | 70 | 127 | 4.0 | 13.0 | 0.00 | 0.00 | 0.00 | 53 | 1014.6 |
| 20260508164554 | 70 | 138 | 8.0 | 13.0 | 0.00 | 0.00 | 0.00 | 49 | 1014.9 |
| 20260508164052 | 70 | 0 | 5.0 | 12.0 | 0.00 | 0.00 | 0.00 | 51 | 1015.2 |
| 20260508163555 | 70 | 169 | 0.0 | 12.0 | 0.00 | 0.00 | 0.00 | 53 | 1015.2 |
| 20260508163100 | 70 | 125 | 6.0 | 13.0 | 0.00 | 0.00 | 0.00 | 51 | 1015.3 |
| 20260508162557 | 70 | 135 | 7.0 | 13.0 | 0.00 | 0.00 | 0.00 | 50 | 1015.3 |
| 20260508162055 | 71 | 0 | 1.0 | 12.0 | 0.00 | 0.00 | 0.00 | 51 | 1015.4 |
| 20260508161605 | 70 | 0 | 2.0 | 12.0 | 0.00 | 0.00 | 0.00 | 51 | 1015.3 |
| 20260508161055 | 70 | 167 | 2.0 | 11.0 | 0.00 | 0.00 | 0.00 | 53 | 1015.2 |
| 20260508160554 | 69 | 0 | 5.0 | 12.0 | 0.00 | 0.00 | 0.00 | 53 | 1015.1 |
| 20260508160058 | 69 | 0 | 3.0 | 12.0 | 0.00 | 0.00 | 0.00 | 53 | 1015.1 |
| 20260508155557 | 69 | 118 | 0.0 | 11.0 | 0.00 | 0.00 | 0.00 | 55 | 1015.1 |
| 20260508155056 | 68 | 131 | 4.0 | 11.0 | 0.00 | 0.00 | 0.00 | 53 | 1014.9 |
| 20260508154558 | 68 | 135 | 5.0 | 13.0 | 0.00 | 0.00 | 0.00 | 52 | 1015.0 |
| 20260508154051 | 68 | 141 | 5.0 | 13.0 | 0.00 | 0.00 | 0.00 | 53 | 1015.3 |
| 20260508153555 | 68 | 0 | 3.0 | 14.0 | 0.00 | 0.00 | 0.00 | 54 | 1015.2 |
| 20260508153056 | 68 | 98 | 8.0 | 14.0 | 0.00 | 0.00 | 0.00 | 52 | 1015.1 |
| 20260508152555 | 67 | 124 | 7.0 | 15.0 | 0.00 | 0.00 | 0.00 | 52 | 1015.1 |
| 20260508152055 | 67 | 122 | 8.0 | 15.0 | 0.00 | 0.00 | 0.00 | 54 | 1015.0 |
| 20260508151605 | 67 | 120 | 11.0 | 15.0 | 0.00 | 0.00 | 0.00 | 53 | 1015.2 |
| 20260508151055 | 67 | 125 | 8.0 | 14.0 | 0.00 | 0.00 | 0.00 | 54 | 1015.1 |
| 20260508150554 | 67 | 123 | 8.0 | 14.0 | 0.00 | 0.00 | 0.00 | 58 | 1015.1 |
| 20260508150054 | 66 | 116 | 7.0 | 14.0 | 0.00 | 0.00 | 0.00 | 59 | 1015.1 |
| 20260508145552 | 66 | 117 | 10.0 | 14.0 | 0.00 | 0.00 | 0.00 | 59 | 1015.3 |
| 20260508145054 | 66 | 120 | 10.0 | 13.0 | 0.00 | 0.00 | 0.00 | 61 | 1015.2 |
| 20260508144553 | 66 | 95 | 7.0 | 14.0 | 0.00 | 0.00 | 0.00 | 61 | 1015.2 |
| 20260508144052 | 65 | 113 | 7.0 | 14.0 | 0.00 | 0.00 | 0.00 | 62 | 1015.2 |
| 20260508143553 | 65 | 122 | 5.0 | 14.0 | 0.00 | 0.00 | 0.00 | 63 | 1015.3 |
| 20260508143055 | 64 | 117 | 6.0 | 11.0 | 0.00 | 0.00 | 0.00 | 67 | 1015.3 |
| 20260508142552 | 64 | 0 | 6.0 | 11.0 | 0.00 | 0.00 | 0.00 | 65 | 1015.5 |
| 20260508142051 | 64 | 0 | 6.0 | 12.0 | 0.00 | 0.00 | 0.00 | 65 | 1015.7 |
| 20260508141600 | 64 | 129 | 10.0 | 13.0 | 0.00 | 0.00 | 0.00 | 66 | 1015.9 |
| 20260508141052 | 63 | 117 | 8.0 | 13.0 | 0.00 | 0.00 | 0.00 | 65 | 1015.8 |
| 20260508140557 | 63 | 110 | 5.0 | 11.0 | 0.00 | 0.00 | 0.00 | 68 | 1016.0 |
| 20260508140054 | 63 | 117 | 7.0 | 10.0 | 0.00 | 0.00 | 0.00 | 67 | 1016.3 |
| 20260508135555 | 62 | 122 | 6.0 | 10.0 | 0.00 | 0.00 | 0.00 | 69 | 1016.2 |
| 20260508135052 | 62 | 124 | 7.0 | 10.0 | 0.00 | 0.00 | 0.00 | 70 | 1016.1 |
| 20260508134559 | 62 | 110 | 6.0 | 10.0 | 0.00 | 0.00 | 0.00 | 70 | 1016.1 |
| 20260508134059 | 62 | 0 | 0.0 | 10.0 | 0.00 | 0.00 | 0.00 | 72 | 1016.2 |
| 20260508133555 | 62 | 0 | 6.0 | 10.0 | 0.00 | 0.00 | 0.00 | 72 | 1016.2 |
| 20260508133105 | 61 | 123 | 1.0 | 10.0 | 0.00 | 0.00 | 0.00 | 74 | 1016.2 |
| 20260508132554 | 61 | 0 | 5.0 | 10.0 | 0.00 | 0.00 | 0.00 | 73 | 1016.3 |
| 20260508132055 | 61 | 120 | 6.0 | 9.0 | 0.00 | 0.00 | 0.00 | 73 | 1016.2 |
| 20260508131607 | 60 | 101 | 5.0 | 7.0 | 0.00 | 0.00 | 0.00 | 76 | 1016.3 |
| 20260508131052 | 60 | 109 | 5.0 | 7.0 | 0.00 | 0.00 | 0.00 | 76 | 1016.2 |
| 20260508130551 | 59 | 107 | 4.0 | 7.0 | 0.00 | 0.00 | 0.00 | 78 | 1016.4 |
| 20260508125555 | 58 | 70 | 5.0 | 8.0 | 0.00 | 0.00 | 0.00 | 79 | 1016.2 |
| 20260508125051 | 58 | 96 | 5.0 | 8.0 | 0.00 | 0.00 | 0.00 | 79 | 1016.0 |
| 20260508124558 | 58 | 76 | 0.0 | 0.0 | 0.00 | 0.00 | 0.00 | 81 | 1016.1 |
| 20260508124055 | 58 | 0 | 0.0 | 0.0 | 0.00 | 0.00 | 0.00 | 81 | 1016.2 |
| 20260508123555 | 57 | 0 | 0.0 | 0.0 | 0.00 | 0.00 | 0.00 | 82 | 1016.1 |
| 20260508123106 | 57 | 0 | 0.0 | 4.0 | 0.00 | 0.00 | 0.00 | 84 | 1016.1 |
| 20260508122555 | 56 | 0 | 0.0 | 4.0 | 0.00 | 0.00 | 0.00 | 84 | 1016.1 |
| 20260508122056 | 56 | 60 | 1.0 | 4.0 | 0.00 | 0.00 | 0.00 | 84 | 1016.3 |
| 20260508121557 | 55 | 0 | 0.0 | 4.0 | 0.00 | 0.00 | 0.00 | 84 | 1016.0 |
| 20260508121054 | 54 | 0 | 0.0 | 4.0 | 0.00 | 0.00 | 0.00 | 84 | 1016.0 |
| 20260508120554 | 54 | 81 | 0.0 | 4.0 | 0.00 | 0.00 | 0.00 | 82 | 1016.0 |
| 20260508120057 | 53 | 0 | 1.0 | 4.0 | 0.00 | 0.00 | 0.00 | 80 | 1016.1 |
| 20260508115552 | 53 | 0 | 2.0 | 4.0 | 0.00 | 0.00 | 0.00 | 77 | 1015.9 |
| 20260508115055 | 52 | 0 | 0.0 | 0.0 | 0.00 | 0.00 | 0.00 | 71 | 1016.0 |
| 20260508114558 | 52 | 0 | 0.0 | 0.0 | 0.00 | 0.00 | 0.00 | 68 | 1015.9 |
| 20260508114051 | 51 | 0 | 0.0 | 0.0 | 0.00 | 0.00 | 0.00 | 67 | 1015.8 |
| 20260508113555 | 51 | 0 | 0.0 | 0.0 | 0.00 | 0.00 | 0.00 | 63 | 1015.7 |
| 20260508113056 | 51 | 0 | 0.0 | 0.0 | 0.00 | 0.00 | 0.00 | 62 | 1015.7 |
| 20260508112551 | 51 | 0 | 0.0 | 0.0 | 0.00 | 0.00 | 0.00 | 63 | 1015.7 |
| 20260508112051 | 51 | 0 | 0.0 | 0.0 | 0.00 | 0.00 | 0.00 | 63 | 1015.7 |
| 20260508111606 | 51 | 0 | 0.0 | 0.0 | 0.00 | 0.00 | 0.00 | 64 | 1015.8 |
| 20260508111055 | 50 | 0 | 0.0 | 0.0 | 0.00 | 0.00 | 0.00 | 66 | 1015.7 |
| 20260508110554 | 50 | 0 | 0.0 | 0.0 | 0.00 | 0.00 | 0.00 | 69 | 1015.7 |
| 20260508105555 | 51 | 0 | 0.0 | 0.0 | 0.00 | 0.00 | 0.00 | 71 | 1015.5 |
| 20260508105055 | 51 | 0 | 0.0 | 0.0 | 0.00 | 0.00 | 0.00 | 70 | 1015.5 |
| 20260508104557 | 51 | 0 | 0.0 | 0.0 | 0.00 | 0.00 | 0.00 | 69 | 1015.5 |
| 20260508104055 | 51 | 0 | 0.0 | 0.0 | 0.00 | 0.00 | 0.00 | 69 | 1015.7 |
| 20260508103555 | 51 | 0 | 0.0 | 0.0 | 0.00 | 0.00 | 0.00 | 69 | 1015.5 |
| 20260508103054 | 52 | 0 | 0.0 | 0.0 | 0.00 | 0.00 | 0.00 | 67 | 1015.6 |
| 20260508102552 | 52 | 0 | 0.0 | 0.0 | 0.00 | 0.00 | 0.00 | 64 | 1015.6 |
| 20260508102051 | 51 | 0 | 0.0 | 0.0 | 0.00 | 0.00 | 0.00 | 61 | 1015.8 |
| 20260508101557 | 51 | 0 | 0.0 | 0.0 | 0.00 | 0.00 | 0.00 | 59 | 1015.5 |
| 20260508101051 | 51 | 0 | 0.0 | 0.0 | 0.00 | 0.00 | 0.00 | 60 | 1015.5 |
| 20260508100555 | 51 | 0 | 0.0 | 0.0 | 0.00 | 0.00 | 0.00 | 61 | 1015.6 |
| 20260508100057 | 51 | 0 | 0.0 | 0.0 | 0.00 | 0.00 | 0.00 | 63 | 1015.5 |
| 20260508095555 | 51 | 0 | 0.0 | 0.0 | 0.00 | 0.00 | 0.00 | 64 | 1015.6 |
| 20260508095057 | 51 | 0 | 0.0 | 0.0 | 0.00 | 0.00 | 0.00 | 65 | 1015.7 |
| 20260508094610 | 51 | 0 | 0.0 | 0.0 | 0.00 | 0.00 | 0.00 | 67 | 1015.7 |
| 20260508094057 | 51 | 0 | 0.0 | 0.0 | 0.00 | 0.00 | 0.00 | 67 | 1015.4 |
| 20260508093555 | 51 | 0 | 0.0 | 0.0 | 0.00 | 0.00 | 0.00 | 68 | 1015.3 |
| 20260508093101 | 51 | 0 | 0.0 | 0.0 | 0.00 | 0.00 | 0.00 | 70 | 1015.2 |
| 20260508092553 | 51 | 0 | 0.0 | 0.0 | 0.00 | 0.00 | 0.00 | 70 | 1015.2 |
| 20260508092054 | 51 | 0 | 0.0 | 0.0 | 0.00 | 0.00 | 0.00 | 72 | 1015.1 |
| 20260508091604 | 52 | 0 | 0.0 | 0.0 | 0.00 | 0.00 | 0.00 | 71 | 1015.1 |
| 20260508091052 | 52 | 0 | 0.0 | 0.0 | 0.00 | 0.00 | 0.00 | 74 | 1015.2 |
| 20260508090552 | 52 | 0 | 0.0 | 0.0 | 0.00 | 0.00 | 0.00 | 76 | 1015.1 |
| 20260508090056 | 52 | 0 | 0.0 | 0.0 | 0.00 | 0.00 | 0.00 | 78 | 1015.0 |
| 20260508085552 | 53 | 0 | 0.0 | 0.0 | 0.00 | 0.00 | 0.00 | 80 | 1014.9 |
| 20260508085054 | 53 | 0 | 0.0 | 0.0 | 0.00 | 0.00 | 0.00 | 80 | 1015.0 |
| 20260508084551 | 53 | 0 | 0.0 | 0.0 | 0.00 | 0.00 | 0.00 | 79 | 1014.8 |
| 20260508084052 | 53 | 0 | 0.0 | 0.0 | 0.00 | 0.00 | 0.00 | 76 | 1015.0 |
| 20260508083553 | 52 | 0 | 0.0 | 0.0 | 0.00 | 0.00 | 0.00 | 77 | 1014.9 |
| 20260508083053 | 53 | 0 | 0.0 | 0.0 | 0.00 | 0.00 | 0.00 | 78 | 1015.0 |
| 20260508082554 | 53 | 0 | 0.0 | 0.0 | 0.00 | 0.00 | 0.00 | 78 | 1014.7 |
| 20260508082052 | 53 | 0 | 0.0 | 0.0 | 0.00 | 0.00 | 0.00 | 78 | 1014.7 |
| 20260508081619 | 53 | 0 | 0.0 | 0.0 | 0.00 | 0.00 | 0.00 | 77 | 1014.9 |
| 20260508081054 | 53 | 0 | 0.0 | 0.0 | 0.00 | 0.00 | 0.00 | 72 | 1014.9 |
| 20260508080555 | 53 | 0 | 0.0 | 0.0 | 0.00 | 0.00 | 0.00 | 72 | 1015.0 |
| 20260508080053 | 53 | 0 | 0.0 | 0.0 | 0.00 | 0.00 | 0.00 | 72 | 1015.1 |
| 20260508075552 | 53 | 0 | 0.0 | 0.0 | 0.00 | 0.00 | 0.00 | 72 | 1015.1 |
| 20260508075054 | 53 | 0 | 0.0 | 0.0 | 0.00 | 0.00 | 0.00 | 73 | 1015.2 |
| 20260508074553 | 53 | 0 | 0.0 | 0.0 | 0.00 | 0.00 | 0.00 | 75 | 1015.0 |
| 20260508074052 | 53 | 0 | 0.0 | 0.0 | 0.00 | 0.00 | 0.00 | 75 | 1014.9 |
| 20260508073553 | 53 | 0 | 0.0 | 0.0 | 0.00 | 0.00 | 0.00 | 74 | 1014.8 |
| 20260508073055 | 53 | 0 | 0.0 | 0.0 | 0.00 | 0.00 | 0.00 | 74 | 1014.8 |
| 20260508072555 | 53 | 0 | 0.0 | 0.0 | 0.00 | 0.00 | 0.00 | 74 | 1014.9 |
| 20260508072052 | 53 | 0 | 0.0 | 0.0 | 0.00 | 0.00 | 0.00 | 75 | 1015.0 |
| 20260508071557 | 53 | 0 | 0.0 | 0.0 | 0.00 | 0.00 | 0.00 | 77 | 1015.0 |
| 20260508071052 | 53 | 0 | 0.0 | 0.0 | 0.00 | 0.00 | 0.00 | 78 | 1015.3 |
| 20260508070558 | 53 | 0 | 0.0 | 0.0 | 0.00 | 0.00 | 0.00 | 80 | 1015.4 |
| 20260508070107 | 53 | 0 | 0.0 | 0.0 | 0.00 | 0.00 | 0.00 | 80 | 1015.3 |
| 20260508065553 | 53 | 0 | 0.0 | 0.0 | 0.00 | 0.00 | 0.00 | 82 | 1015.5 |
| 20260508065056 | 54 | 0 | 0.0 | 0.0 | 0.00 | 0.00 | 0.00 | 83 | 1015.4 |
| 20260508064557 | 55 | 0 | 0.0 | 0.0 | 0.00 | 0.00 | 0.00 | 83 | 1015.4 |
| 20260508064052 | 55 | 0 | 0.0 | 0.0 | 0.00 | 0.00 | 0.00 | 83 | 1015.5 |
| 20260508063553 | 55 | 0 | 0.0 | 0.0 | 0.00 | 0.00 | 0.00 | 83 | 1015.5 |
| 20260508063058 | 55 | 0 | 0.0 | 0.0 | 0.00 | 0.00 | 0.00 | 83 | 1015.6 |
| 20260508062552 | 55 | 0 | 0.0 | 0.0 | 0.00 | 0.00 | 0.00 | 83 | 1015.3 |
| 20260508062052 | 55 | 0 | 0.0 | 0.0 | 0.00 | 0.00 | 0.00 | 83 | 1015.5 |
| 20260508061557 | 55 | 0 | 0.0 | 0.0 | 0.00 | 0.00 | 0.00 | 83 | 1015.5 |
| 20260508061054 | 55 | 0 | 0.0 | 0.0 | 0.00 | 0.00 | 0.00 | 83 | 1015.5 |
| 20260508060553 | 56 | 0 | 0.0 | 0.0 | 0.00 | 0.00 | 0.00 | 83 | 1015.5 |
| 20260508060100 | 56 | 0 | 0.0 | 0.0 | 0.00 | 0.00 | 0.00 | 83 | 1015.5 |
| 20260508055554 | 56 | 0 | 0.0 | 0.0 | 0.00 | 0.00 | 0.00 | 83 | 1015.5 |
| 20260508055052 | 56 | 0 | 0.0 | 0.0 | 0.00 | 0.00 | 0.00 | 83 | 1015.3 |
| 20260508054558 | 56 | 0 | 0.0 | 0.0 | 0.00 | 0.00 | 0.00 | 83 | 1015.4 |
| 20260508054055 | 56 | 0 | 0.0 | 0.0 | 0.00 | 0.00 | 0.00 | 83 | 1015.6 |
| 20260508053557 | 56 | 0 | 0.0 | 0.0 | 0.00 | 0.00 | 0.00 | 83 | 1015.9 |
| 20260508053059 | 56 | 0 | 0.0 | 0.0 | 0.00 | 0.00 | 0.00 | 83 | 1015.6 |
| 20260508052557 | 56 | 0 | 0.0 | 0.0 | 0.00 | 0.00 | 0.00 | 83 | 1015.7 |
| 20260508052057 | 56 | 0 | 0.0 | 0.0 | 0.00 | 0.00 | 0.00 | 83 | 1015.5 |
| 20260508051559 | 56 | 0 | 0.0 | 0.0 | 0.00 | 0.00 | 0.00 | 83 | 1015.5 |
| 20260508051056 | 56 | 0 | 0.0 | 0.0 | 0.00 | 0.00 | 0.00 | 83 | 1015.5 |
| 20260508050600 | 56 | 0 | 0.0 | 0.0 | 0.00 | 0.00 | 0.00 | 83 | 1015.8 |
| 20260508050057 | 56 | 0 | 0.0 | 0.0 | 0.00 | 0.00 | 0.00 | 83 | 1015.8 |
| 20260508045556 | 56 | 0 | 0.0 | 0.0 | 0.00 | 0.32 | 0.00 | 83 | 1015.8 |
| 20260508045059 | 56 | 0 | 0.0 | 0.0 | 0.00 | 0.32 | 0.00 | 83 | 1015.6 |
| 20260508044606 | 57 | 0 | 0.0 | 0.0 | 0.00 | 0.32 | 0.00 | 83 | 1015.7 |
| 20260508044100 | 57 | 0 | 0.0 | 0.0 | 0.00 | 0.32 | 0.00 | 83 | 1015.6 |
| 20260508043600 | 57 | 0 | 0.0 | 0.0 | 0.00 | 0.32 | 0.00 | 83 | 1015.5 |
| 20260508043111 | 57 | 0 | 0.0 | 0.0 | 0.00 | 0.32 | 0.00 | 83 | 1015.6 |
| 20260508042600 | 57 | 0 | 0.0 | 0.0 | 0.00 | 0.32 | 0.00 | 82 | 1015.5 |
| 20260508042056 | 57 | 0 | 0.0 | 0.0 | 0.00 | 0.32 | 0.00 | 82 | 1015.6 |
| 20260508041556 | 57 | 0 | 0.0 | 0.0 | 0.00 | 0.32 | 0.00 | 82 | 1015.6 |
| 20260508041057 | 57 | 0 | 0.0 | 0.0 | 0.00 | 0.32 | 0.00 | 81 | 1015.7 |
| 20260508040558 | 58 | 0 | 0.0 | 0.0 | 0.00 | 0.32 | 0.00 | 81 | 1015.7 |
| 20260508040101 | 58 | 0 | 0.0 | 0.0 | 0.00 | 0.32 | 0.00 | 79 | 1015.7 |
| 20260508035556 | 58 | 0 | 0.0 | 0.0 | 0.00 | 0.32 | 0.00 | 77 | 1015.7 |
| 20260508035056 | 58 | 0 | 0.0 | 0.0 | 0.00 | 0.32 | 0.00 | 75 | 1015.7 |
| 20260508034558 | 58 | 0 | 0.0 | 0.0 | 0.00 | 0.32 | 0.00 | 75 | 1015.9 |
| 20260508034057 | 58 | 0 | 0.0 | 0.0 | 0.00 | 0.32 | 0.00 | 75 | 1015.9 |
| 20260508033556 | 59 | 0 | 0.0 | 0.0 | 0.00 | 0.32 | 0.00 | 75 | 1015.8 |
| 20260508033055 | 58 | 0 | 0.0 | 0.0 | 0.00 | 0.32 | 0.00 | 75 | 1016.1 |
| 20260508032559 | 58 | 0 | 0.0 | 0.0 | 0.00 | 0.32 | 0.00 | 75 | 1016.0 |
| 20260508032055 | 59 | 0 | 0.0 | 0.0 | 0.00 | 0.32 | 0.00 | 74 | 1016.1 |
| 20260508031556 | 59 | 0 | 0.0 | 0.0 | 0.00 | 0.32 | 0.00 | 75 | 1016.1 |
| 20260508031057 | 59 | 0 | 0.0 | 0.0 | 0.00 | 0.32 | 0.00 | 75 | 1016.0 |
| 20260508030558 | 59 | 0 | 0.0 | 0.0 | 0.00 | 0.32 | 0.00 | 74 | 1016.0 |
| 20260508025556 | 59 | 0 | 0.0 | 0.0 | 0.00 | 0.32 | 0.00 | 72 | 1016.0 |
| 20260508025056 | 59 | 0 | 0.0 | 0.0 | 0.00 | 0.32 | 0.00 | 72 | 1015.9 |
| 20260508024559 | 59 | 0 | 0.0 | 0.0 | 0.00 | 0.32 | 0.00 | 76 | 1016.1 |
| 20260508024056 | 60 | 0 | 0.0 | 0.0 | 0.00 | 0.32 | 0.00 | 77 | 1016.0 |
| 20260508023556 | 60 | 0 | 0.0 | 0.0 | 0.00 | 0.32 | 0.00 | 74 | 1016.0 |
| 20260508023108 | 60 | 0 | 0.0 | 0.0 | 0.00 | 0.32 | 0.00 | 70 | 1015.9 |
| 20260508022553 | 60 | 0 | 0.0 | 0.0 | 0.00 | 0.32 | 0.00 | 70 | 1015.8 |
| 20260508022052 | 60 | 0 | 0.0 | 0.0 | 0.00 | 0.32 | 0.00 | 71 | 1015.6 |
| 20260508021552 | 60 | 0 | 0.0 | 0.0 | 0.00 | 0.32 | 0.00 | 73 | 1015.7 |
| 20260508021052 | 60 | 0 | 0.0 | 0.0 | 0.00 | 0.32 | 0.00 | 70 | 1015.5 |
| 20260508020552 | 61 | 0 | 0.0 | 0.0 | 0.00 | 0.32 | 0.00 | 71 | 1015.7 |
| 20260508020053 | 61 | 0 | 0.0 | 0.0 | 0.00 | 0.32 | 0.00 | 68 | 1015.6 |
| 20260508015555 | 61 | 0 | 0.0 | 0.0 | 0.00 | 0.32 | 0.00 | 70 | 1015.6 |
| 20260508015052 | 60 | 0 | 0.0 | 0.0 | 0.00 | 0.32 | 0.00 | 71 | 1015.5 |
| 20260508014553 | 60 | 0 | 0.0 | 0.0 | 0.00 | 0.32 | 0.00 | 71 | 1015.5 |
| 20260508014053 | 60 | 0 | 0.0 | 0.0 | 0.00 | 0.32 | 0.00 | 72 | 1015.4 |
| 20260508013553 | 60 | 0 | 0.0 | 0.0 | 0.00 | 0.32 | 0.00 | 72 | 1015.3 |
| 20260508013051 | 60 | 0 | 0.0 | 0.0 | 0.00 | 0.32 | 0.00 | 72 | 1015.2 |
| 20260508012552 | 60 | 0 | 0.0 | 0.0 | 0.00 | 0.32 | 0.00 | 72 | 1015.2 |
| 20260508012052 | 61 | 0 | 0.0 | 0.0 | 0.00 | 0.32 | 0.00 | 72 | 1015.1 |
| 20260508011555 | 61 | 0 | 0.0 | 0.0 | 0.00 | 0.32 | 0.00 | 71 | 1015.1 |
| 20260508011056 | 61 | 0 | 0.0 | 0.0 | 0.00 | 0.32 | 0.00 | 75 | 1015.2 |
| 20260508010552 | 62 | 0 | 0.0 | 0.0 | 0.00 | 0.32 | 0.00 | 72 | 1015.2 |
| 20260508010053 | 62 | 0 | 0.0 | 0.0 | 0.00 | 0.32 | 0.00 | 71 | 1015.2 |
| 20260508005552 | 62 | 0 | 0.0 | 0.0 | 0.00 | 0.32 | 0.00 | 65 | 1015.0 |
| 20260508005052 | 63 | 0 | 0.0 | 0.0 | 0.00 | 0.32 | 0.00 | 65 | 1015.1 |
| 20260508004555 | 63 | 0 | 0.0 | 0.0 | 0.00 | 0.32 | 0.00 | 64 | 1015.0 |
| 20260508004052 | 63 | 0 | 0.0 | 0.0 | 0.00 | 0.32 | 0.00 | 63 | 1014.9 |
| 20260508003552 | 64 | 0 | 0.0 | 0.0 | 0.00 | 0.32 | 0.00 | 62 | 1015.1 |
| 20260508003059 | 64 | 0 | 0.0 | 0.0 | 0.00 | 0.32 | 0.00 | 61 | 1015.0 |
| 20260508002552 | 64 | 0 | 0.0 | 0.0 | 0.00 | 0.32 | 0.00 | 61 | 1015.0 |
| 20260508002052 | 64 | 0 | 0.0 | 0.0 | 0.00 | 0.32 | 0.00 | 61 | 1015.0 |
| 20260508001555 | 65 | 0 | 0.0 | 0.0 | 0.00 | 0.32 | 0.00 | 60 | 1015.0 |
| 20260508001052 | 65 | 0 | 0.0 | 0.0 | 0.00 | 0.32 | 0.00 | 59 | 1014.9 |
| 20260508000554 | 65 | 0 | 0.0 | 0.0 | 0.00 | 0.32 | 0.00 | 58 | 1014.9 |
| 20260508000054 | 65 | 0 | 0.0 | 0.0 | 0.00 | 0.32 | 0.00 | 58 | 1015.1 |
| 20260507235552 | 65 | 0 | 0.0 | 0.0 | 0.00 | 0.32 | 0.00 | 58 | 1014.9 |
| 20260507235052 | 66 | 0 | 0.0 | 0.0 | 0.00 | 0.32 | 0.00 | 56 | 1015.1 |
| 20260507234603 | 66 | 0 | 0.0 | 0.0 | 0.00 | 0.32 | 0.00 | 56 | 1014.9 |
| 20260507234051 | 66 | 0 | 0.0 | 0.0 | 0.00 | 0.32 | 0.00 | 55 | 1015.1 |
| 20260507233553 | 66 | 0 | 0.0 | 0.0 | 0.00 | 0.32 | 0.00 | 56 | 1015.0 |
| 20260507233056 | 66 | 0 | 0.0 | 0.0 | 0.00 | 0.32 | 0.00 | 56 | 1015.0 |
| 20260507232553 | 66 | 0 | 0.0 | 10.0 | 0.00 | 0.32 | 0.00 | 54 | 1015.0 |
| 20260507232052 | 66 | 0 | 0.0 | 10.0 | 0.00 | 0.32 | 0.00 | 54 | 1015.0 |
| 20260507231558 | 66 | 0 | 3.0 | 10.0 | 0.00 | 0.32 | 0.00 | 54 | 1015.1 |
| 20260507231052 | 67 | 0 | 0.0 | 1.0 | 0.00 | 0.32 | 0.00 | 53 | 1015.1 |
| 20260507230552 | 67 | 0 | 0.0 | 8.0 | 0.00 | 0.32 | 0.00 | 53 | 1015.2 |
| 20260507230058 | 67 | 0 | 0.0 | 9.0 | 0.00 | 0.32 | 0.00 | 52 | 1015.1 |
| 20260507225552 | 67 | 0 | 5.0 | 9.0 | 0.00 | 0.32 | 0.00 | 52 | 1015.1 |
| 20260507225052 | 67 | 0 | 0.0 | 8.0 | 0.00 | 0.32 | 0.00 | 51 | 1015.1 |
| 20260507224555 | 67 | 0 | 0.0 | 8.0 | 0.00 | 0.32 | 0.00 | 51 | 1015.1 |
| 20260507224054 | 67 | 0 | 0.0 | 8.0 | 0.00 | 0.32 | 0.00 | 51 | 1015.1 |
| 20260507223553 | 67 | 309 | 1.0 | 8.0 | 0.00 | 0.32 | 0.00 | 52 | 1015.2 |
| 20260507223058 | 67 | 0 | 0.0 | 8.0 | 0.00 | 0.32 | 0.00 | 52 | 1015.2 |
| 20260507222553 | 67 | 335 | 0.0 | 10.0 | 0.00 | 0.32 | 0.00 | 51 | 1015.3 |
| 20260507222051 | 67 | 0 | 1.0 | 10.0 | 0.00 | 0.32 | 0.00 | 52 | 1015.3 |
| 20260507221552 | 67 | 0 | 0.0 | 10.0 | 0.00 | 0.32 | 0.00 | 53 | 1015.2 |
| 20260507221057 | 67 | 0 | 3.0 | 10.0 | 0.00 | 0.32 | 0.00 | 52 | 1015.3 |
| 20260507220552 | 67 | 335 | 0.0 | 6.0 | 0.00 | 0.32 | 0.00 | 49 | 1015.1 |
| 20260507220054 | 67 | 0 | 0.0 | 12.0 | 0.00 | 0.32 | 0.00 | 49 | 1015.1 |
| 20260507215554 | 67 | 10 | 0.0 | 12.0 | 0.00 | 0.32 | 0.00 | 50 | 1015.0 |
| 20260507215053 | 67 | 0 | 8.0 | 13.0 | 0.00 | 0.32 | 0.00 | 48 | 1015.0 |
| 20260507214558 | 68 | 0 | 4.0 | 13.0 | 0.00 | 0.32 | 0.00 | 49 | 1014.9 |
| 20260507214052 | 67 | 307 | 4.0 | 13.0 | 0.00 | 0.32 | 0.00 | 49 | 1015.0 |
| 20260507213553 | 67 | 0 | 0.0 | 13.0 | 0.00 | 0.32 | 0.00 | 49 | 1014.9 |
| 20260507213054 | 67 | 347 | 3.0 | 12.0 | 0.00 | 0.32 | 0.00 | 51 | 1015.0 |
| 20260507212552 | 67 | 347 | 1.0 | 13.0 | 0.00 | 0.32 | 0.00 | 52 | 1015.1 |
| 20260507212052 | 67 | 335 | 2.0 | 13.0 | 0.00 | 0.32 | 0.00 | 52 | 1014.8 |
| 20260507211554 | 67 | 333 | 3.0 | 13.0 | 0.00 | 0.32 | 0.00 | 51 | 1014.9 |
| 20260507211051 | 67 | 317 | 4.0 | 13.0 | 0.00 | 0.32 | 0.00 | 51 | 1015.0 |
| 20260507210551 | 67 | 342 | 0.0 | 12.0 | 0.00 | 0.32 | 0.00 | 54 | 1015.3 |
| 20260507210056 | 67 | 328 | 8.0 | 14.0 | 0.00 | 0.32 | 0.00 | 52 | 1015.1 |
| 20260507205552 | 67 | 3 | 8.0 | 14.0 | 0.00 | 0.32 | 0.00 | 51 | 1015.2 |
| 20260507205051 | 68 | 326 | 4.0 | 17.0 | 0.00 | 0.32 | 0.00 | 51 | 1015.1 |
| 20260507204554 | 68 | 319 | 6.0 | 17.0 | 0.00 | 0.32 | 0.00 | 49 | 1015.1 |
| 20260507204051 | 68 | 309 | 6.0 | 12.0 | 0.00 | 0.32 | 0.00 | 50 | 1015.1 |
| 20260507203554 | 68 | 0 | 1.0 | 12.0 | 0.00 | 0.32 | 0.00 | 49 | 1014.9 |
| 20260507203102 | 68 | 328 | 5.0 | 12.0 | 0.00 | 0.32 | 0.00 | 51 | 1015.1 |
| 20260507202552 | 68 | 0 | 5.0 | 11.0 | 0.00 | 0.32 | 0.00 | 50 | 1015.1 |
| 20260507202052 | 67 | 354 | 0.0 | 11.0 | 0.00 | 0.32 | 0.00 | 48 | 1015.1 |
| 20260507201553 | 68 | 0 | 0.0 | 12.0 | 0.00 | 0.32 | 0.00 | 48 | 1015.2 |
| 20260507201052 | 67 | 0 | 3.0 | 25.0 | 0.00 | 0.32 | 0.00 | 49 | 1015.2 |
| 20260507200555 | 67 | 331 | 5.0 | 25.0 | 0.00 | 0.32 | 0.00 | 49 | 1015.1 |